Content
SEND FEEDBACK

Daily
Averages
Monthly
Summary
United States of America

MT. VERNON, TEXAS


Home > North America > United States > Texas
Elevation: 480 feet     Latitude: 33 11N     Longitude: 095 14W

WEATHER
 
SELECT A DAY
Number of Records: 277,374;   Date Range: 2/13/03 - 8/28/14
 
SHARE

PRINT THIS DATA

[ ← Previous Day ]
WEATHER ALMANAC - JANUARY 31, 2013
[ Next Day → ]
[ °C ]   °F
Weather ElementAverageHighLow
Temperature47.5 °F64.4 °F (2:15 pm)30.2 °F (1:55 am)
Dewpoint27.1 °F32 °F (1:15 am)23 °F (1:35 pm)
Humidity52.5 %93 % (1:35 am)21 % (2:55 pm)
Barometer30.20 in30.33 in (11:15 pm)30.14 in (12:35 am)
Wind Speed6.7 mph17.3 mph (10:35 am)
Wind Gust23 mph (4:15 pm)
Weather ElementAverage
Visibility10 mi
Wind DirectionSSE (166.5 °)

Weather ElementTotal
Precipitation---
Heating Degree Days17.7 (Base 65)
Averaged from 71 records on January 31, 2013
WEATHER CONDITIONS BREAKOUT
WIND DIRECTION BREAKOUT
WEATHER BY HOUR - JANUARY 31, 2013
[ °C ]   °F
Local TimeTemperatureDewpointHumidityBarometerVisibilityWind DirectionWind SpeedGust SpeedPrecipitationEventsConditions
12:35 AM39.2 °F30.2 °F70 %30.14 in10.0 miCalmClear
12:55 AM33.8 °F30.2 °F87 %30.14 in10.0 miCalmClear
1:15 AM35.6 °F32.0 °F87 %30.14 in10.0 miCalmClear
1:35 AM32.0 °F30.2 °F93 %30.15 in10.0 miCalmClear
1:55 AM30.2 °F28.4 °F93 %30.15 in10.0 miSouth (170°)4.6 mphClear
2:15 AM32.0 °F30.2 °F93 %30.15 in10.0 miSSW (200°)3.5 mphClear
2:35 AM32.0 °F28.4 °F87 %30.15 in10.0 miSouth (190°)3.5 mphClear
2:55 AM33.8 °F28.4 °F81 %30.16 in10.0 miSSW (200°)3.5 mphClear
3:15 AM32.0 °F28.4 °F87 %30.16 in10.0 miSouth (190°)3.5 mphClear
3:35 AM32.0 °F28.4 °F87 %30.16 in10.0 miSouth (190°)4.6 mphClear
3:55 AM33.8 °F28.4 °F81 %30.17 in10.0 miSSW (200°)3.5 mphClear
4:15 AM33.8 °F28.4 °F81 %30.17 in10.0 miSSW (210°)3.5 mphClear
4:35 AM33.8 °F28.4 °F81 %30.17 in10.0 miCalmClear
4:55 AM33.8 °F28.4 °F81 %30.16 in10.0 miCalmClear
5:15 AM32.0 °F28.4 °F87 %30.17 in10.0 miSouth (180°)3.5 mphClear
5:35 AM33.8 °F28.4 °F81 %30.16 in10.0 miCalmClear
5:55 AM32.0 °F28.4 °F87 %30.17 in10.0 miCalmClear
6:15 AM33.8 °F28.4 °F81 %30.17 in10.0 miCalmClear
6:35 AM33.8 °F28.4 °F81 %30.17 in10.0 miCalmClear
6:55 AM32.0 °F28.4 °F87 %30.18 in10.0 miSouth (190°)3.5 mphClear
7:15 AM32.0 °F26.6 °F80 %30.18 in10.0 miSouth (170°)4.6 mphClear
7:35 AM32.0 °F26.6 °F80 %30.19 in10.0 miSouth (170°)4.6 mphClear
7:55 AM32.0 °F28.4 °F87 %30.20 in10.0 miSouth (170°)5.8 mphClear
8:15 AM32.0 °F30.2 °F93 %30.20 in10.0 miSSE (150°)5.8 mphClear
8:35 AM35.6 °F32.0 °F87 %30.21 in10.0 miSSE (160°)5.8 mphClear
8:55 AM41.0 °F32.0 °F70 %30.23 in10.0 miSouth (180°)3.5 mphClear
9:15 AM44.6 °F30.2 °F57 %30.22 in10.0 miSSW (200°)10.4 mphClear
9:35 AM46.4 °F30.2 °F53 %30.23 in10.0 miSSW (210°)10.4 mphClear
9:55 AM50.0 °F28.4 °F43 %30.23 in10.0 miSSW (210°)10.4 mphClear
10:15 AM53.6 °F26.6 °F35 %30.22 in10.0 miSW (220°)13.8 mph17.3 mphClear
10:35 AM53.6 °F24.8 °F33 %30.23 in10.0 miSSW (210°)17.3 mphClear
10:55 AM55.4 °F24.8 °F31 %30.23 in10.0 miSSW (210°)15.0 mphClear
11:15 AM55.4 °F26.6 °F33 %30.23 in10.0 miSSW (200°)15.0 mph19.6 mphClear
11:35 AM57.2 °F26.6 °F31 %30.23 in10.0 miSSW (210°)12.7 mphClear
11:55 AM59.0 °F26.6 °F29 %30.23 in10.0 miSW (230°)12.7 mphClear
12:15 PM59.0 °F26.6 °F29 %30.23 in10.0 miSouth (190°)15.0 mph18.4 mphClear
12:35 PM60.8 °F26.6 °F27 %30.22 in10.0 miSSW (210°)11.5 mphClear
12:55 PM60.8 °F26.6 °F27 %30.20 in10.0 miSSW (210°)9.2 mphClear
1:15 PM62.6 °F26.6 °F26 %30.19 in10.0 miSSW (210°)11.5 mphClear
1:35 PM62.6 °F23.0 °F22 %30.18 in10.0 miSSW (210°)13.8 mph20.7 mphClear
1:55 PM62.6 °F24.8 °F24 %30.16 in10.0 miSSW (200°)11.5 mph17.3 mphClear
2:15 PM64.4 °F24.8 °F22 %30.16 in10.0 miSSW (210°)12.7 mph17.3 mphClear
2:35 PM64.4 °F24.8 °F22 %30.15 in10.0 miSW (230°)11.5 mph16.1 mphClear
2:55 PM64.4 °F23.0 °F21 %30.15 in10.0 miSSW (200°)12.7 mph18.4 mphClear
3:15 PM64.4 °F23.0 °F21 %30.16 in10.0 miSW (220°)13.8 mph17.3 mphClear
3:35 PM64.4 °F23.0 °F21 %30.15 in10.0 miSSW (200°)11.5 mph18.4 mphClear
3:55 PM64.4 °F23.0 °F21 %30.15 in10.0 miSSW (200°)11.5 mph20.7 mphClear
4:15 PM64.4 °F23.0 °F21 %30.15 in10.0 miSSW (210°)13.8 mph23.0 mphClear
4:35 PM64.4 °F23.0 °F21 %30.14 in10.0 miSouth (190°)13.8 mph17.3 mphClear
4:55 PM62.6 °F23.0 °F22 %30.14 in10.0 miSouth (190°)9.2 mphClear
5:15 PM60.8 °F23.0 °F23 %30.15 in10.0 miSSW (200°)11.5 mphClear
5:35 PM60.8 °F23.0 °F23 %30.15 in10.0 miSSW (200°)8.1 mphClear
5:55 PM59.0 °F23.0 °F25 %30.16 in10.0 miSSW (210°)3.5 mphClear
6:15 PM57.2 °F23.0 °F27 %30.18 in10.0 miSouth (190°)4.6 mphClear
6:35 PM57.2 °F23.0 °F27 %30.18 in10.0 miSouth (190°)5.8 mphClear
6:55 PM55.4 °F23.0 °F29 %30.19 in10.0 miSouth (180°)4.6 mphClear
7:15 PM55.4 °F23.0 °F29 %30.20 in10.0 miSouth (180°)3.5 mphClear
7:35 PM53.6 °F23.0 °F30 %30.20 in10.0 miSouth (180°)3.5 mphClear
7:55 PM53.6 °F23.0 °F30 %30.21 in10.0 miCalmClear
8:15 PM50.0 °F24.8 °F37 %30.21 in10.0 miCalmClear
8:35 PM51.8 °F24.8 °F35 %30.22 in10.0 miCalmClear
8:55 PM48.2 °F26.6 °F43 %30.23 in10.0 miCalmClear
9:15 PM50.0 °F26.6 °F40 %30.25 in10.0 miCalmClear
9:35 PM48.2 °F28.4 °F46 %30.25 in10.0 miCalmClear
9:55 PM50.0 °F30.2 °F47 %30.28 in10.0 miNW (320°)10.4 mphClear
10:15 PM48.2 °F30.2 °F50 %30.29 in10.0 miNorth (350°)10.4 mphClear
10:35 PM46.4 °F32.0 °F57 %30.30 in10.0 miNorth (350°)9.2 mphClear
10:55 PM44.6 °F32.0 °F61 %30.31 in10.0 miNNW (340°)8.1 mphClear
11:15 PM44.6 °F32.0 °F61 %30.33 in10.0 miNNW (340°)9.2 mphClear
11:35 PM44.6 °F32.0 °F61 %30.33 in10.0 miNNW (340°)9.2 mphClear
11:55 PM42.8 °F32.0 °F66 %30.33 in10.0 miNorth (350°)6.9 mphClear
Hourly data recorded from KOSA, located miles away from Mt. Vernon, Texas







STORIES FROM OUR PARTNERS